This demonstration page uses our WeatherBlox Daily Observations layout. Learn more.

38.88101, -77.10428

Hourly Observations for January 23, 2021

Temp ( °F °C ) Dew Point ( °F °C ) Humidity (%) Winds ( mph kmh ) Pressure ( in mb ) Visibility ( mi km ) Precip ( " mm )
12:52 am 00:52 Partly Cloudy 39 3.9 16 -8.9 39 39 NW 14 22 30.01 1016 10 16.0934 0 0
1:52 am 01:52 Mostly Clear 38 3.3 14 -10 37 37 WNW 16 26 30.03 1017 10 16.0934 0 0
2:52 am 02:52 Mostly Clear 36 2.2 17 -8.3 46 46 NNW 15 24 30.05 1018 10 16.0934 0 0
3:52 am 03:52 Mostly Clear 35 1.7 16 -8.9 46 46 NNW 16 26 30.05 1018 10 16.0934 0 0
4:52 am 04:52 Cloudy 35 1.7 16 -8.9 46 46 NW 12 19 30.07 1018 10 16.0934 0 0
5:52 am 05:52 Cloudy 33 0.6 13 -10.6 43 43 NNW 15 24 30.1 1019 10 16.0934 0 0
6:52 am 06:52 Mostly Cloudy 32 0 11 -11.7 41 41 NW 12 19 30.13 1020 10 16.0934 0 0
7:52 am 07:52 Mostly Cloudy 32 0 10 -12.2 40 40 NW 20 31 30.16 1022 10 16.0934 0 0
8:47 am 08:47 Windy with Snow Likely 30 -1 18 -8 59 59 NW 21 33 30.2 1023 6 9.65604 0.001 0.001
8:52 am 08:52 Windy with Snow Likely 31 -0.6 17 -8.3 56 56 NNW 20 31 30.2 1023 6 9.65604 0.001 0.001
9:06 am 09:06 Cloudy 32 0 14 -10 47 47 NNW 21 33 30.22 1023 9 14.48406 0.001 0.001
9:52 am 09:52 Mostly Cloudy 33 0.6 11 -11.7 40 40 NW 22 35 30.25 1024 10 16.0934 0.001 0.001
10:52 am 10:52 Partly Cloudy 33 0.6 7 -13.9 33 33 NW 20 31 30.27 1025 10 16.0934 0 0
11:52 am 11:52 Mostly Sunny 34 1.1 6 -14.4 31 31 NNW 21 33 30.25 1025 10 16.0934 0 0
12:52 pm 12:52 Mostly Sunny 35 1.7 6 -14.4 29 29 WNW 15 24 30.24 1024 10 16.0934 0 0
1:52 pm 13:52 Mostly Sunny 35 1.7 5 -15 28 28 NNW 21 33 30.24 1024 10 16.0934 0 0
2:52 pm 14:52 Mostly Sunny 35 1.7 7 -13.9 31 31 NW 15 24 30.24 1024 10 16.0934 0 0
3:52 pm 15:52 Sunny 35 1.7 7 -13.9 31 31 WNW 16 26 30.26 1025 10 16.0934 0 0
4:52 pm 16:52 Sunny 33 0.6 7 -13.9 33 33 NW 13 20 30.27 1025 10 16.0934 0 0
5:52 pm 17:52 Clear 31 -0.6 8 -13.3 38 38 NW 16 26 30.3 1026 10 16.0934 0 0
6:52 pm 18:52 Clear 30 -1.1 8 -13.3 39 39 NW 14 22 30.32 1027 10 16.0934 0 0
7:52 pm 19:52 Clear 29 -1.7 9 -12.8 43 43 NW 14 22 30.32 1027 10 16.0934 0 0
8:52 pm 20:52 Clear 28 -2.2 9 -12.8 44 44 NNW 15 24 30.33 1027 10 16.0934 0 0
9:52 pm 21:52 Clear 27 -2.8 9 -12.8 46 46 NNW 13 20 30.34 1027 10 16.0934 0 0
10:52 pm 22:52 Partly Cloudy 27 -2.8 9 -12.8 46 46 NNW 17 28 30.34 1027 10 16.0934 0 0
11:52 pm 23:52 Mostly Cloudy 26 -3.3 10 -12.2 51 51 NW 10 17 30.33 1027 10 16.0934 0 0

Powered by AerisWeather